Regional Weather Roundup
Issued by NWS Goodland, KS

Home | Current Version | Previous Version | Graphics & Text | Print | Product List | Glossary On
Versions: 1 2 3 4 5 6 7 8 9 10 11 12 13 14 15 16 17 18 19 20 21 22 23 24 25 26 27 28 29 30 31 32 33 34 35 36 37 38 39 40 41 42 43 44 45 46 47 48 49 50
957
ASUS43 KGLD 210659
RWRGLD

GOODLAND FORECAST AREA HOURLY WEATHER ROUNDUP
NATIONAL WEATHER SERVICE GOODLAND KS
1200 AM MST TUE FEB 21 2017

...OFFICIAL OBSERVATIONS...

CITY           SKY/WX    TMP DP  RH WIND       PRES   REMARKS
GOODLAND KS    CLOUDY    45  14  28 SW12      30.01S
HILL CITY KS   CLOUDY    31  25  78 SW3       30.00S
IMPERIAL NEB   CLOUDY    39  17  41 SW9       29.99S
MCCOOK NEB     CLOUDY    33  23  66 W10       29.98S
AKRON CO       CLOUDY    45  14  28 S16       29.99F
BURLINGTON CO  CLOUDY    38  13  35 SW9       30.03S
LIMON CO       CLOUDY    39  12  33 S8        30.06R
$$

...UNOFFICIAL OBSERVATIONS...

CITY           SKY/WX    TMP DP  RH WIND       PRES   REMARKS
LENORA KS        N/A     45  32  60 CALM        N/A
NORTON KS      CLEAR     34  21  60 SW9       29.98
SHARON SPRINGS   N/A     31  15  51 SW10        N/A
TRENTON NEB      N/A     38  32  79 CALM        N/A
KIT CARSON CO    N/A     28  14  54 CALM        N/A
YUMA CO        FAIR      34  18  51 SW12      29.99F
$$




USA.gov is the U.S. government's official web portal to all federal, state and local government web resources and services.